Location: Dumpton Point
(51.3500°N, 1.4433°E)
Time: 13:53:11
(UTC+00:00)

Cosmos 2082 Rocket - Visible Passes

Search period start: 06 August 2020 00:00
Search period end: 16 August 2020 00:00
Orbit: 833 x 853 km, 71.0° (Epoch: 05 August)

Date Brightness Start Highest point End Pass type
(mag) Time Alt. Az. Time Alt. Az. Time Alt. Az.
06 Aug 4.6 00:18:37 10° WNW 00:22:39 19° NNW 00:26:41 10° NNE visible
06 Aug 5.3 02:08:34 10° NNW 02:09:15 10° N 02:09:54 10° N visible
06 Aug 3.2 20:34:40 10° SSE 20:39:14 25° ESE 20:43:47 10° NE visible
06 Aug 2.5 22:17:12 10° SW 22:22:52 67° WNW 22:28:32 10° NNE visible
07 Aug 4.6 00:03:58 10° W 00:08:03 20° NNW 00:12:09 10° NNE visible
07 Aug 5.3 01:53:53 10° NNW 01:54:37 10° N 01:55:21 10° N visible
07 Aug 5.1 03:38:43 10° N 03:41:30 14° NNE 03:44:17 10° NE visible
07 Aug 3.3 20:20:14 10° SSE 20:24:43 24° ESE 20:29:11 10° NE visible
07 Aug 2.5 22:02:37 10° SW 22:08:18 69° WNW 22:14:00 10° NNE visible
07 Aug 4.6 23:49:19 10° W 23:53:28 20° NW 23:57:37 10° NNE visible
08 Aug 5.3 01:39:11 10° NNW 01:40:01 10° N 01:40:50 10° N visible
08 Aug 5.1 03:24:11 10° N 03:26:54 13° NNE 03:29:37 10° NE visible
08 Aug 3.3 20:05:47 10° SSE 20:10:11 24° ESE 20:14:35 10° NE visible
08 Aug 2.5 21:48:03 10° SW 21:53:45 71° WNW 21:59:27 10° NNE visible
08 Aug 4.6 23:34:40 10° W 23:38:52 21° NW 23:43:05 10° NNE visible
09 Aug 5.3 01:24:29 10° NNW 01:25:24 10° N 01:26:18 10° N visible
09 Aug 5.2 03:09:39 10° N 03:12:18 13° NNE 03:14:56 10° NE visible
09 Aug 2.4 21:33:30 10° SW 21:39:12 74° WNW 21:44:54 10° NNE visible
09 Aug 4.6 23:20:02 10° W 23:24:17 21° NW 23:28:33 10° NNE visible
10 Aug 5.4 01:09:48 10° NNW 01:10:47 10° N 01:11:46 10° N visible
10 Aug 5.2 02:55:08 10° N 02:57:41 13° NNE 03:00:15 10° NE visible
10 Aug 2.4 21:18:57 10° SW 21:24:38 76° WNW 21:30:21 10° NNE visible
10 Aug 4.6 23:05:23 10° W 23:09:42 22° NW 23:14:01 10° NNE visible
11 Aug 5.4 00:55:06 10° NNW 00:56:11 10° N 00:57:15 10° N visible
11 Aug 5.2 02:40:36 10° N 02:43:05 13° NNE 02:45:34 10° NE visible
11 Aug 2.4 21:04:23 10° SW 21:10:06 79° WNW 21:15:49 10° NNE visible
11 Aug 4.6 22:50:45 10° W 22:55:06 22° NW 22:59:29 10° NNE visible
12 Aug 5.4 00:40:24 10° NNW 00:41:34 11° N 00:42:43 10° N visible
12 Aug 5.3 02:26:04 10° N 02:28:29 13° NNE 02:30:53 10° NE visible
12 Aug 2.3 20:49:50 10° SSW 20:55:33 81° WNW 21:01:16 10° NNE visible
12 Aug 4.6 22:36:07 10° W 22:40:32 23° NW 22:44:56 10° NNE visible
13 Aug 5.4 00:25:42 10° NNW 00:26:57 11° N 00:28:11 10° N visible
13 Aug 5.3 02:11:33 10° N 02:13:52 12° NNE 02:16:12 10° NE visible
13 Aug 4.4 03:54:55 10° NNW 03:59:55 31° NE 04:04:53 10° ESE visible
13 Aug 2.3 20:35:17 10° SSW 20:40:59 84° WNW 20:46:43 10° NNE visible
13 Aug 4.6 22:21:28 10° W 22:25:56 23° NW 22:30:24 10° NNE visible
14 Aug 5.5 00:11:00 10° NNW 00:12:20 11° N 00:13:40 10° N visible
14 Aug 5.4 01:57:01 10° N 01:59:16 12° NNE 02:01:30 10° NE visible
14 Aug 4.4 03:40:22 10° NNW 03:45:20 30° NE 03:50:16 10° ESE visible
14 Aug 2.3 20:20:45 10° SSW 20:26:27 86° WNW 20:32:09 10° NNE visible
14 Aug 4.6 22:06:51 10° W 22:11:21 24° NW 22:15:53 10° NNE visible
14 Aug 5.5 23:56:19 10° NNW 23:57:43 11° NNW 23:59:08 10° N visible
15 Aug 5.4 01:42:30 10° N 01:44:40 12° NNE 01:46:49 10° NE visible
15 Aug 4.4 03:25:50 10° NNW 03:30:46 30° NE 03:35:39 10° ESE visible
15 Aug 2.3 20:06:11 10° SSW 20:11:53 89° W 20:17:37 10° NNE visible
15 Aug 4.6 21:52:13 10° W 21:56:47 24° NW 22:01:21 10° NNE visible
15 Aug 5.5 23:41:38 10° NNW 23:43:07 11° NNW 23:44:36 10° N visible
